When you browse on this site, cookies collect data to enhance your experience and personalize the content and advertising you see.
Visit our Privacy Policy to learn more. By continuing to use the site, you agree to this use of cookies and data.
  • In Germany
  • List of Countries
  • For 7 days
  • Water Temperature
  • Satellite Maps
  • Weather Map
  • Weather Widgets
  • user-avatar
    Login

    Hourly Weather Sevan

    Today, 19 July, Friday

    Time Temperature Precipitation Wind Pressure Humidity
    00:00 +21°C° 0 mm 3 mps 639 mmHg 50%
    01:00 +21°C° 0 mm 3 mps 639 mmHg 53%
    02:00 +20°C° 0 mm 3 mps 639 mmHg 55%
    03:00 +20°C° 0 mm 3 mps 639 mmHg 59%
    04:00 +20°C° 0 mm 2 mps 640 mmHg 59%
    05:00 +20°C° 0 mm 2 mps 640 mmHg 59%
    06:00 +21°C° 0 mm 2 mps 641 mmHg 60%
    07:00 +24°C° 0 mm 2 mps 641 mmHg 55%
    08:00 +26°C° 0 mm 2 mps 642 mmHg 50%
    09:00 +28°C° 0 mm 2 mps 642 mmHg 46%
    10:00 +29°C° 0.1 mm 2 mps 643 mmHg 42%
    11:00 +30°C° 0.1 mm 3 mps 643 mmHg 37%
    12:00 +31°C° 0.1 mm 3 mps 643 mmHg 33%
    13:00 +33°C° 0.1 mm 3 mps 643 mmHg 32%
    14:00 +33°C° 0.1 mm 3 mps 643 mmHg 32%
    15:00 +32°C° 0.1 mm 2 mps 643 mmHg 32%
    16:00 +31°C° 0 mm 3 mps 642 mmHg 40%
    17:00 +29°C° 0 mm 4 mps 642 mmHg 47%
    18:00 +27°C° 0 mm 5 mps 642 mmHg 55%
    19:00 +26°C° 0 mm 5 mps 642 mmHg 61%
    20:00 +23°C° 0 mm 5 mps 642 mmHg 67%
    21:00 +21°C° 0 mm 5 mps 642 mmHg 72%
    22:00 +20°C° 0 mm 5 mps 642 mmHg 74%
    23:00 +20°C° 0 mm 4 mps 642 mmHg 75%

    Tomorrow, 20 July, Saturday

    Time Temperature Precipitation Wind Pressure Humidity
    00:00 +20°C° 0 mm 4 mps 642 mmHg 76%
    01:00 +19°C° 0 mm 3 mps 643 mmHg 77%
    02:00 +19°C° 0 mm 3 mps 643 mmHg 78%
    03:00 +19°C° 0 mm 3 mps 643 mmHg 79%
    04:00 +19°C° 0 mm 2 mps 643 mmHg 77%
    05:00 +20°C° 0 mm 2 mps 643 mmHg 76%
    06:00 +20°C° 0 mm 2 mps 644 mmHg 75%
    07:00 +23°C° 0 mm 2 mps 644 mmHg 68%
    08:00 +25°C° 0 mm 2 mps 644 mmHg 62%
    09:00 +26°C° 0 mm 2 mps 645 mmHg 55%
    10:00 +28°C° 0 mm 2 mps 645 mmHg 51%
    11:00 +29°C° 0 mm 2 mps 645 mmHg 47%
    12:00 +31°C° 0 mm 2 mps 646 mmHg 43%
    13:00 +31°C° 0 mm 3 mps 645 mmHg 41%
    14:00 +33°C° 0 mm 3 mps 645 mmHg 40%
    15:00 +33°C° 0 mm 3 mps 645 mmHg 39%
    16:00 +31°C° 0 mm 3 mps 645 mmHg 45%
    17:00 +30°C° 0 mm 4 mps 645 mmHg 51%
    18:00 +29°C° 0 mm 4 mps 644 mmHg 57%
    19:00 +27°C° 0 mm 5 mps 644 mmHg 62%
    20:00 +25°C° 0 mm 5 mps 644 mmHg 67%
    21:00 +23°C° 0 mm 5 mps 644 mmHg 72%
    22:00 +22°C° 0 mm 5 mps 644 mmHg 71%
    23:00 +22°C° 0 mm 4 mps 644 mmHg 71%

    Day after tomorrow, 21 July, Sunday

    Time Temperature Precipitation Wind Pressure Humidity
    00:00 +21°C° 0 mm 4 mps 645 mmHg 70%
    01:00 +21°C° 0 mm 3 mps 644 mmHg 69%
    02:00 +20°C° 0 mm 3 mps 644 mmHg 69%
    03:00 +20°C° 0 mm 3 mps 644 mmHg 68%
    04:00 +20°C° 0 mm 2 mps 644 mmHg 66%
    05:00 +21°C° 0 mm 2 mps 644 mmHg 64%
    06:00 +21°C° 0 mm 2 mps 644 mmHg 63%
    07:00 +24°C° 0 mm 2 mps 645 mmHg 56%
    08:00 +27°C° 0 mm 2 mps 645 mmHg 49%
    09:00 +29°C° 0 mm 2 mps 646 mmHg 43%
    10:00 +30°C° 0 mm 2 mps 646 mmHg 39%
    11:00 +33°C° 0 mm 3 mps 646 mmHg 35%
    12:00 +34°C° 0 mm 3 mps 647 mmHg 31%
    13:00 +35°C° 0 mm 3 mps 646 mmHg 31%
    14:00 +35°C° 0 mm 4 mps 646 mmHg 31%
    15:00 +36°C° 0 mm 5 mps 645 mmHg 31%
    16:00 +34°C° 0 mm 5 mps 645 mmHg 37%
    17:00 +33°C° 0 mm 5 mps 645 mmHg 43%
    18:00 +32°C° 0 mm 5 mps 644 mmHg 50%
    19:00 +29°C° 0 mm 5 mps 644 mmHg 51%
    20:00 +28°C° 0 mm 5 mps 644 mmHg 51%
    21:00 +26°C° 0 mm 5 mps 644 mmHg 52%
    22:00 +25°C° 0 mm 4 mps 644 mmHg 54%
    23:00 +23°C° 0 mm 4 mps 643 mmHg 55%

    22 July, Monday

    Time Temperature Precipitation Wind Pressure Humidity
    00:00 +22°C° 0 mm 3 mps 643 mmHg 56%
    01:00 +22°C° 0 mm 3 mps 643 mmHg 57%
    02:00 +22°C° 0 mm 3 mps 643 mmHg 58%
    03:00 +21°C° 0 mm 2 mps 642 mmHg 59%
    04:00 +23°C° 0 mm 2 mps 643 mmHg 58%
    05:00 +23°C° 0 mm 2 mps 643 mmHg 57%
    06:00 +24°C° 0 mm 2 mps 643 mmHg 56%
    07:00 +26°C° 0 mm 2 mps 643 mmHg 50%
    08:00 +28°C° 0 mm 2 mps 644 mmHg 44%
    09:00 +30°C° 0 mm 2 mps 644 mmHg 38%
    10:00 +32°C° 0 mm 2 mps 644 mmHg 35%
    11:00 +34°C° 0 mm 2 mps 644 mmHg 32%
    12:00 +36°C° 0 mm 3 mps 644 mmHg 29%
    13:00 +36°C° 0 mm 3 mps 644 mmHg 28%
    14:00 +37°C° 0 mm 3 mps 644 mmHg 28%
    15:00 +37°C° 0 mm 3 mps 643 mmHg 28%
    16:00 +36°C° 0.1 mm 3 mps 643 mmHg 34%
    17:00 +34°C° 0.1 mm 4 mps 642 mmHg 41%
    18:00 +33°C° 0.1 mm 4 mps 642 mmHg 47%
    19:00 +30°C° 0 mm 4 mps 642 mmHg 52%
    20:00 +28°C° 0 mm 4 mps 641 mmHg 56%
    21:00 +26°C° 0 mm 4 mps 641 mmHg 61%
    22:00 +25°C° 0 mm 4 mps 641 mmHg 61%
    23:00 +23°C° 0 mm 4 mps 641 mmHg 61%

    23 July, Tuesday

    Time Temperature Precipitation Wind Pressure Humidity
    00:00 +22°C° 0 mm 3 mps 641 mmHg 62%
    01:00 +21°C° 0 mm 3 mps 641 mmHg 63%
    02:00 +21°C° 0 mm 2 mps 640 mmHg 64%
    03:00 +20°C° 0 mm 2 mps 640 mmHg 65%
    04:00 +21°C° 0 mm 2 mps 640 mmHg 64%
    05:00 +21°C° 0 mm 2 mps 641 mmHg 64%
    06:00 +23°C° 0 mm 2 mps 641 mmHg 63%
    07:00 +25°C° 0 mm 2 mps 641 mmHg 58%
    08:00 +27°C° 0 mm 2 mps 642 mmHg 53%
    09:00 +29°C° 0 mm 2 mps 642 mmHg 47%
    10:00 +30°C° 0 mm 2 mps 642 mmHg 43%
    11:00 +32°C° 0 mm 2 mps 642 mmHg 40%
    12:00 +34°C° 0 mm 3 mps 642 mmHg 36%
    13:00 +34°C° 0.2 mm 3 mps 642 mmHg 37%
    14:00 +34°C° 0.2 mm 3 mps 641 mmHg 37%
    15:00 +35°C° 0.2 mm 3 mps 641 mmHg 38%
    16:00 +33°C° 0.1 mm 4 mps 640 mmHg 44%
    17:00 +30°C° 0.1 mm 5 mps 640 mmHg 51%
    18:00 +29°C° 0.1 mm 6 mps 640 mmHg 57%
    19:00 +27°C° 0 mm 5 mps 640 mmHg 61%
    20:00 +25°C° 0 mm 5 mps 640 mmHg 66%
    21:00 +23°C° 0 mm 5 mps 640 mmHg 70%
    22:00 +22°C° 0 mm 4 mps 640 mmHg 71%
    23:00 +22°C° 0 mm 4 mps 640 mmHg 71%

    24 July, Wednesday

    Time Temperature Precipitation Wind Pressure Humidity
    00:00 +21°C° 0 mm 3 mps 640 mmHg 71%
    01:00 +21°C° 0 mm 3 mps 640 mmHg 72%
    02:00 +21°C° 0 mm 2 mps 640 mmHg 72%
    03:00 +20°C° 0 mm 2 mps 639 mmHg 72%
    04:00 +21°C° 0 mm 2 mps 640 mmHg 71%
    05:00 +21°C° 0 mm 2 mps 640 mmHg 69%
    06:00 +23°C° 0 mm 1 mps 640 mmHg 67%
    07:00 +25°C° 0 mm 2 mps 640 mmHg 61%
    08:00 +27°C° 0 mm 2 mps 641 mmHg 54%
    09:00 +29°C° 0 mm 2 mps 641 mmHg 47%
    10:00 +31°C° 0 mm 3 mps 642 mmHg 40%
    11:00 +33°C° 0 mm 4 mps 642 mmHg 32%
    12:00 +35°C° 0 mm 5 mps 642 mmHg 24%
    13:00 +35°C° 0 mm 5 mps 642 mmHg 22%
    14:00 +36°C° 0 mm 5 mps 642 mmHg 21%
    15:00 +37°C° 0 mm 5 mps 641 mmHg 19%
    16:00 +36°C° 0 mm 5 mps 641 mmHg 21%
    17:00 +36°C° 0 mm 5 mps 641 mmHg 24%
    18:00 +35°C° 0 mm 5 mps 641 mmHg 26%
    19:00 +32°C° 0 mm 4 mps 641 mmHg 33%
    20:00 +28°C° 0 mm 4 mps 640 mmHg 39%
    21:00 +25°C° 0 mm 3 mps 640 mmHg 46%
    22:00 +25°C° 0 mm 3 mps 640 mmHg 45%
    23:00 +25°C° 0 mm 3 mps 640 mmHg 44%
    Show more